Location: Hotel
(44.0604°N, 6.2102°E)
Time: 03:40:06
(UTC+00:00)

Daily predictions for brighter satellites

Satellite Brightness Start Highest point End
(mag) Time Altitude Azimuth Time Altitude Azimuth Time Altitude Azimuth
SL-16 R/B 4.5 02:33:07 20° ENE 02:33:07 20° ENE 02:35:17 10° NE
CZ-4C R/B 4.3 02:49:28 22° NNE 02:49:28 22° NNE 02:51:38 10° NNE
Lacrosse 5 4.2 02:56:47 20° ENE 02:56:47 20° ENE 02:58:47 10° E
CZ-2C R/B 4.2 03:06:42 10° NNE 03:10:46 30° E 03:10:46 30° E
BREEZE-M DEB (TANK) 4.3 03:21:49 38° NE 03:21:49 38° NE 03:28:31 10° E
Cosmos 2237 Rocket 3.9 03:34:18 22° N 03:34:18 22° N 03:36:30 10° NNE
USA 215 3.9 03:32:35 10° NE 03:38:28 41° NNW 03:38:28 41° NNW
Meteor 2-10 Rocket 4.4 03:40:28 44° NNE 03:40:28 44° NNE 03:44:01 10° NNE
ATLAS CENTAUR R/B 3.4 03:49:20 25° NNE 03:49:20 25° NNE 03:51:16 10° NNE
MSX 4.2 03:52:57 10° N 03:57:22 50° NNW 03:57:22 50° NNW
Cosmos 1943 Rocket 2.7 03:55:25 21° NNW 03:59:04 57° ENE 04:04:27 10° SE
NOSS 3-1 (A) 4.0 04:01:46 48° WNW 04:04:01 65° WSW 04:12:36 10° SSE
H-2A R/B 3.3 04:00:06 10° NNE 04:04:24 52° E 04:06:15 31° SSE
Cosmos 1743 Rocket 4.3 04:06:26 10° N 04:10:39 50° ENE 04:14:52 10° SSE
USA 267 4.0 04:06:09 10° SSE 04:10:41 33° SSW 04:10:41 33° SSW
SL-16 R/B 2.6 04:15:01 46° NW 04:15:01 46° NW 04:19:55 10° NNE
Cosmos 1842 Rocket 3.5 04:21:59 47° S 04:23:15 88° E 04:27:46 10° N
Shenzhou-11 Module 4.4 04:26:01 17° ESE 04:26:01 17° ESE 04:27:05 10° ESE
CZ-4B R/B 4.0 04:21:24 10° NNE 04:25:45 88° W 04:27:11 43° SSW
Cosmos 2369 Rocket 2.3 04:21:34 10° NNW 04:27:20 75° ENE 04:33:01 10° SSE
STARLINK-1070 4.2 04:29:12 36° E 04:29:12 36° E 04:31:20 10° ENE
STARLINK-1124 4.2 04:29:56 38° E 04:29:56 38° E 04:31:58 10° ENE
STARLINK-1066 4.2 04:30:06 37° E 04:30:06 37° E 04:32:15 10° ENE
STARLINK-1081 4.2 04:30:19 37° E 04:30:19 37° E 04:32:28 10° ENE
STARLINK-1069 4.1 04:30:45 38° E 04:30:45 38° E 04:32:55 10° ENE
STARLINK-1085 4.1 04:30:58 38° E 04:30:58 38° E 04:33:09 10° ENE
STARLINK-1086 4.1 04:31:11 39° E 04:31:11 39° E 04:33:24 10° ENE
Cosmos 1603 3.9 04:25:30 12° SSW 04:30:43 72° ESE 04:36:25 10° NNE
STARLINK-1095 4.1 04:31:24 39° E 04:31:24 39° E 04:33:37 10° ENE
STARLINK-1077 4.1 04:31:37 39° E 04:31:37 39° E 04:33:51 10° ENE
STARLINK-1075 4.0 04:31:50 40° E 04:31:50 40° E 04:34:04 10° ENE
STARLINK-1093 4.0 04:32:03 40° E 04:32:03 40° E 04:34:17 10° ENE
STARLINK-1074 4.0 04:32:15 40° E 04:32:15 40° E 04:34:30 10° ENE
STARLINK-1087 4.0 04:32:29 41° E 04:32:29 41° E 04:34:45 10° ENE
STARLINK-1088 4.0 04:32:41 40° E 04:32:41 40° E 04:34:56 10° ENE
STARLINK-1115 3.9 04:32:55 41° E 04:32:55 41° E 04:35:11 10° ENE
STARLINK-1076 3.9 04:33:08 42° E 04:33:08 42° E 04:35:25 10° ENE
Meteor PRIRODA 4.0 04:29:04 10° NNE 04:32:46 65° E 04:35:44 15° S
STARLINK-1092 3.9 04:33:21 42° E 04:33:21 42° E 04:35:38 10° ENE
STARLINK-1080 3.9 04:33:33 42° E 04:33:33 42° E 04:35:51 10° ENE
STARLINK-1090 3.9 04:33:46 43° E 04:33:46 43° E 04:36:05 10° ENE
STARLINK-1089 3.8 04:34:00 43° E 04:34:00 43° E 04:36:20 10° ENE
STARLINK-1107 3.9 04:34:12 43° E 04:34:12 43° E 04:36:31 10° ENE
STARLINK-1109 3.8 04:34:25 44° E 04:34:25 44° E 04:36:46 10° ENE
STARLINK-1091 3.8 04:34:39 44° ESE 04:34:39 44° ESE 04:37:01 10° ENE
STARLINK-1072 3.8 04:34:51 44° ESE 04:34:51 44° ESE 04:37:13 10° ENE
STARLINK-1096 3.8 04:35:04 44° E 04:35:04 44° E 04:37:25 10° ENE
STARLINK-1079 3.7 04:35:17 45° ESE 04:35:17 45° ESE 04:37:40 10° ENE
STARLINK-1116 3.7 04:35:31 46° ESE 04:35:31 46° ESE 04:37:54 10° ENE
Cosmos 921 Rocket 3.9 04:30:48 10° N 04:35:08 49° ENE 04:39:20 10° SE
STARLINK-1094 3.7 04:35:57 46° ESE 04:35:57 46° ESE 04:38:21 10° ENE
CZ-4C R/B 3.9 04:34:38 18° NW 04:35:35 19° NNW 04:40:00 10° NNE
Cosmos 2251 Rocket 4.2 04:36:06 34° NW 04:36:06 34° NW 04:40:28 10° N
STARLINK-1117 3.6 04:36:09 47° ESE 04:36:09 47° ESE 04:38:34 10° ENE
Cosmos 1943 3.6 04:30:16 10° S 04:35:46 61° ESE 04:41:20 10° NNE
STARLINK-1078 3.6 04:36:22 47° ESE 04:36:22 47° ESE 04:38:48 10° ENE
STARLINK-1108 3.6 04:36:35 48° ESE 04:36:35 48° ESE 04:39:01 10° ENE
STARLINK-1071 3.6 04:36:48 48° ESE 04:36:48 48° ESE 04:39:13 10° ENE
IDEFIX/ARIANE 42P 4.4 04:32:41 10° NNW 04:34:08 15° NNW 04:34:08 15° NNW
STARLINK-1110 3.6 04:37:02 48° ESE 04:37:02 48° ESE 04:39:29 10° ENE
STARLINK-1122 3.5 04:37:27 49° ESE 04:37:27 49° ESE 04:39:56 10° ENE
STARLINK-1126 3.5 04:37:40 50° ESE 04:37:40 50° ESE 04:40:09 10° ENE
STARLINK-1082 3.5 04:37:54 50° ESE 04:37:54 50° ESE 04:40:24 10° ENE
STARLINK-1100 3.5 04:38:06 51° ESE 04:38:06 51° ESE 04:40:36 10° ENE
Lacrosse 5 1.7 04:36:02 41° NW 04:37:49 81° SW 04:42:52 10° SE
STARLINK-1083 3.5 04:38:19 51° ESE 04:38:19 51° ESE 04:40:50 10° ENE
STARLINK-1125 3.4 04:38:32 52° ESE 04:38:32 52° ESE 04:41:03 10° ENE
Cosmos 1633 4.0 04:35:25 10° N 04:38:53 40° ENE 04:42:19 10° SSE
COSMO-SKYMED 1 2.8 04:36:39 10° SSE 04:40:58 72° ENE 04:45:18 10° N
Cosmos 2263 4.4 04:35:57 10° NNW 04:41:40 71° ENE 04:47:16 10° SSE
Cosmos 2221 2.3 04:42:17 17° SSW 04:45:33 69° W 04:49:50 10° N
STARLINK-1098 4.4 04:44:49 23° SSW 04:46:57 45° SE 04:50:51 10° ENE
CZ-2C R/B 3.0 04:44:47 10° N 04:49:29 36° WNW 04:50:10 34° W
ADEOS Rocket 4.3 04:44:11 10° SE 04:50:04 44° ENE 04:56:35 10° N
Meteor 2-3 Rocket 3.8 04:44:49 10° NNW 04:50:25 55° W 04:56:03 10° S
STARLINK-1123 4.3 04:49:20 22° SSW 04:51:37 50° SE 04:55:33 10° ENE
STARLINK-1097 4.1 04:53:58 21° SSW 04:56:25 54° SE 05:00:23 10° ENE
ALOS 2.2 04:52:50 10° NNE 04:57:32 88° ESE 05:02:12 10° SSW
Cosmos 1484 Rocket 2.8 04:53:43 10° N 04:57:36 57° WNW 05:01:30 10° SSW
STARLINK-1099 4.0 04:58:28 20° SW 05:01:07 59° SE 05:05:06 10° ENE
STARLINK-1104 3.9 05:02:57 19° SW 05:05:45 65° SE 05:09:47 10° ENE
GEOS 3 Rocket 3.9 05:05:23 10° NNE 05:10:29 50° NW 05:14:28 17° WSW
STARLINK-1144 3.8 05:07:31 17° SW 05:10:30 70° SE 05:14:33 10° ENE
Cosmos 2016 Rocket 4.2 05:04:23 10° N 05:10:39 76° E 05:16:58 10° SSE
Cosmos 1238 4.2 05:07:44 10° SSW 05:10:41 50° W 05:13:43 10° N
STARLINK-1103 3.7 05:12:07 16° SW 05:15:17 76° SE 05:19:21 10° ENE
PSLV R/B 3.8 05:11:38 10° N 05:15:17 53° WNW 05:18:59 10° SSW
Cosmos 1954 Rocket 4.2 05:11:19 10° SSW 05:16:38 77° ESE 05:21:58 10° NNE
STARLINK-1128 3.6 05:14:21 16° SW 05:17:30 81° SE 05:21:32 10° ENE
PAYLOAD B 4.3 05:12:17 10° NNE 05:17:54 83° ESE 05:23:27 10° SSW
Cosmos 407 Rocket 3.6 05:12:48 10° SW 05:17:59 53° WNW 05:23:11 10° NNE
Cosmos 1140 Rocket 3.4 05:13:59 10° SSW 05:19:12 71° WNW 05:24:28 10° NNE
STARLINK-1101 3.6 05:16:40 15° SW 05:20:01 82° SE 05:24:06 10° ENE
USA 215 4.5 05:15:12 10° NE 05:20:37 29° N 05:25:50 11° WNW
CZ-4B R/B 3.8 05:18:28 10° NNW 05:21:25 23° WNW 05:22:18 21° W
Aureole 2 Rocket 2.7 05:20:04 21° NW 05:21:34 35° WSW 05:24:31 10° S
STARLINK-1113 3.5 05:18:39 15° SW 05:21:59 87° SE 05:26:01 10° ENE
Meteor 2-2 Rocket 4.4 05:16:07 10° SSW 05:22:01 57° WNW 05:27:59 10° N
STARLINK-1102 3.5 05:21:14 13° SW 05:24:46 89° SE 05:28:51 10° NE
Meteor 1-31 Rocket 4.2 05:22:54 10° NNW 05:25:32 18° WNW 05:25:46 18° WNW
STARLINK-1119 3.5 05:23:02 13° SW 05:26:33 87° NW 05:30:36 10° NE
ATLAS CENTAUR R/B 3.6 05:25:33 11° NW 05:26:42 12° NNW 05:28:22 10° N
METEOR-M 4.2 05:22:06 10° N 05:27:20 56° WNW 05:32:32 10° SSW
Cosmos 1805 Rocket 3.6 05:24:32 10° NNW 05:28:47 55° W 05:33:01 10° S
SKYMED 2 4.2 05:25:11 10° SSW 05:29:08 34° W 05:33:08 10° NNW
STARLINK-1111 3.5 05:25:44 12° WSW 05:29:28 85° NW 05:33:34 10° NE
Sich 1 2.9 05:26:49 10° NNW 05:31:07 73° W 05:35:23 10° S
STARLINK-1114 3.5 05:27:27 12° WSW 05:31:09 82° NNW 05:35:11 10° NE
STARLINK-1073 3.5 05:30:19 11° WSW 05:34:14 79° NNW 05:38:19 10° NE
STARLINK-1130 (DARKSAT) 3.5 05:31:49 11° WSW 05:35:42 76° NNW 05:39:44 10° NE
SMAP 4.3 05:32:58 10° NNE 05:37:28 46° E 05:41:56 10° S
STARLINK-1121 3.5 05:35:02 10° WSW 05:39:05 74° NNW 05:43:10 10° NE
Cosmos 2173 Rocket 4.3 05:33:17 10° NNW 05:39:13 45° W 05:45:04 10° SSW
H-2A R/B 4.1 05:36:33 10° NNW 05:39:30 18° WNW 05:42:29 10° WSW
STARLINK-1084 3.5 05:36:16 10° WSW 05:40:17 71° NNW 05:44:19 10° NE
STARLINK-1118 3.4 05:39:19 16° WNW 05:40:48 29° NNW 05:43:04 10° NE
Cosmos 2084 3.6 05:36:33 10° SW 05:41:01 65° NW 05:45:29 10° NNE
Cosmos 1190 Rocket 4.5 05:37:12 10° SW 05:42:07 39° WNW 05:47:07 10° N
Cosmos 1943 Rocket 3.3 05:38:17 10° NW 05:42:20 21° W 05:46:22 10° SSW
STARLINK-1106 3.6 05:39:49 10° WSW 05:43:52 69° NNW 05:47:57 10° NE
Okean O Rocket 1.6 05:42:00 10° N 05:46:21 65° WNW 05:50:39 10° SSW
Cosmos 1400 Rocket 2.8 05:42:34 10° SSW 05:46:33 64° WNW 05:50:37 10° N
Cosmos 1606 4.0 05:44:40 10° SSE 05:48:18 44° E 05:51:57 10° NNE
STARLINK-1112 3.6 05:44:49 10° WSW 05:48:52 64° NNW 05:52:55 10° NE
Cosmos 468 Rocket 4.4 05:50:44 10° NNW 05:56:03 69° ENE 06:01:18 10° SSE
Cosmos 1151 Rocket 3.1 05:53:35 10° S 05:57:54 90° WNW 06:02:16 10° N
Cosmos 676 Rocket 4.4 05:54:29 10° SW 05:59:35 45° WNW 06:04:43 10° N
SL-16 R/B 4.2 05:59:22 10° NW 06:00:03 10° NW 06:00:44 10° NNW
FENGYUN 3A 4.5 05:57:34 10° N 06:02:12 29° WNW 06:06:49 10° WSW
